Location: Unspecified
(0.0000°N, 0.0000°E)
Time: 05:24:48
(UTC+00:00)

Explorer 11/Cluster Stage 4 - All Passes

Search period start: 04 August 2015 00:00
Search period end: 14 August 2015 00:00
Orbit: 468 x 1271 km, 28.8° (Epoch: 03 August)

Date Brightness Start Highest point End Pass type
(mag) Time Alt. Az. Time Alt. Az. Time Alt. Az.
04 Aug - 01:06:11 10° WNW 01:13:35 64° SSW 01:21:49 10° SE night (unlit)
04 Aug - 02:57:32 10° WSW 03:03:44 23° SSW 03:09:50 10° SSE visible
04 Aug - 10:24:37 10° SSW 10:27:57 16° SSE 10:30:59 10° ESE daylight
04 Aug - 12:12:18 10° WSW 12:17:01 79° SSE 12:20:54 10° ENE daylight
04 Aug - 14:03:21 10° WNW 14:05:19 13° NNW 14:07:05 10° N daylight
04 Aug - 21:23:51 10° N 21:25:59 12° NNE 21:28:34 10° NE visible
04 Aug - 23:09:03 10° NW 23:15:14 49° NNE 23:22:43 10° ESE night (unlit)
05 Aug - 00:57:36 10° WNW 01:04:42 53° SSW 01:12:43 10° SE night (unlit)
05 Aug - 02:49:24 10° WSW 02:55:00 19° SSW 03:00:30 10° SSE visible
05 Aug - 10:15:06 10° SSW 10:19:24 22° SSE 10:23:09 10° ESE daylight
05 Aug - 12:03:28 10° WSW 12:08:22 76° NNW 12:12:22 10° NE daylight
05 Aug - 13:56:21 10° NW 13:56:44 10° NNW 13:56:56 10° NNW daylight
05 Aug - 21:14:28 10° N 21:17:18 14° NNE 21:20:41 10° ENE visible
05 Aug - 23:00:15 10° NW 23:06:22 58° NNE 23:13:53 10° ESE night (unlit)
06 Aug - 00:49:06 10° W 00:55:52 44° SSW 01:03:33 10° SE night (unlit)
06 Aug - 02:41:27 10° WSW 02:46:19 17° SSW 02:51:04 10° SSE visible
06 Aug - 10:05:45 10° SSW 10:10:51 28° SSE 10:15:06 10° E daylight
06 Aug - 11:54:41 10° WSW 11:59:42 56° NNW 12:03:44 10° NE daylight
06 Aug - 21:05:18 10° N 21:08:36 17° NNE 21:12:33 10° ENE visible
06 Aug - 22:51:31 10° NW 22:57:30 71° NNE 23:04:59 10° ESE night (unlit)
07 Aug - 00:40:42 10° W 00:47:04 36° SSW 00:54:19 10° SE night (unlit)
07 Aug - 02:33:41 10° SW 02:37:40 14° SSW 02:41:28 10° S night (unlit)
07 Aug - 08:09:29 10° S 08:12:12 13° SSE 08:14:54 10° SE daylight
07 Aug - 09:56:29 10° SW 10:02:13 37° SSE 10:06:53 10° E daylight
07 Aug - 11:45:58 10° WSW 11:50:59 43° NNW 11:55:04 10° NE daylight
07 Aug - 20:56:14 10° NNW 20:59:52 20° NNE 21:04:14 10° ENE visible
07 Aug - 22:42:51 10° WNW 22:48:40 86° NNE 22:56:01 10° ESE night (unlit)
08 Aug - 00:32:23 10° W 00:38:19 30° SSW 00:45:01 10° SSE night (unlit)
08 Aug - 02:26:17 10° SW 02:29:02 12° SSW 02:31:35 10° S night (unlit)
08 Aug - 07:59:33 10° SSW 08:03:37 16° SSE 08:07:28 10° SE daylight
08 Aug - 09:47:16 10° SW 09:53:33 48° SSE 09:58:33 10° ENE daylight
08 Aug - 11:37:17 10° W 11:42:16 34° NNW 11:46:18 10° NNE daylight
08 Aug - 20:47:15 10° NNW 20:51:07 23° NNE 20:55:49 10° E visible
08 Aug - 22:34:15 10° WNW 22:39:51 78° SSW 22:46:59 10° SE night (unlit)
09 Aug - 00:24:12 10° WSW 00:29:36 25° SSW 00:35:37 10° SSE night (unlit)
09 Aug - 07:49:54 10° SSW 07:55:00 20° SSE 07:59:40 10° ESE daylight
09 Aug - 09:38:08 10° SW 09:44:50 62° SSE 09:50:07 10° ENE daylight
09 Aug - 11:28:42 10° W 11:33:31 27° NNW 11:37:28 10° NNE daylight
09 Aug - 20:38:21 10° NNW 20:42:22 28° NNE 20:47:17 10° E visible
09 Aug - 22:25:43 10° WNW 22:31:05 62° SSW 22:37:53 10° SE night (unlit)
10 Aug - 00:16:10 10° WSW 00:20:56 20° SSW 00:26:08 10° SSE night (unlit)
10 Aug - 07:40:24 10° SSW 07:46:20 24° SSE 07:51:39 10° ESE daylight
10 Aug - 09:29:02 10° SW 09:36:03 78° SSE 09:41:36 10° ENE daylight
10 Aug - 11:20:10 10° W 11:24:46 23° NNW 11:28:33 10° NNE daylight
10 Aug - 20:29:31 10° NNW 20:33:37 34° NNE 20:38:40 10° E visible
10 Aug - 22:17:16 10° WNW 22:22:21 48° SSW 22:28:44 10° SE night (unlit)
11 Aug - 00:08:20 10° WSW 00:12:18 16° SSW 00:16:30 10° SSE night (unlit)
11 Aug - 05:44:27 10° S 05:46:55 12° SSE 05:49:34 10° SE visible
11 Aug - 07:31:00 10° SSW 07:37:37 30° SSE 07:43:28 10° E daylight
11 Aug - 09:19:58 10° WSW 09:27:14 86° NNW 09:32:59 10° ENE daylight
11 Aug - 11:11:45 10° WNW 11:16:00 19° NNW 11:19:33 10° NNE daylight
11 Aug - 20:20:44 10° NW 20:24:51 43° NNE 20:29:59 10° ESE visible
11 Aug - 22:08:55 10° W 22:13:39 37° SSW 22:19:30 10° SE night (unlit)
12 Aug - 00:00:49 10° SW 00:03:42 13° SSW 00:06:35 10° S night (unlit)
12 Aug - 05:34:30 10° S 05:38:16 14° SSE 05:42:10 10° SE visible
12 Aug - 07:21:40 10° SW 07:28:51 36° SSE 07:35:09 10° E daylight
12 Aug - 09:11:00 10° WSW 09:18:23 71° NNW 09:24:18 10° NE daylight
12 Aug - 11:03:27 10° WNW 11:07:16 16° NNW 11:10:28 10° N daylight
12 Aug - 20:12:01 10° NW 20:16:07 56° NNE 20:21:13 10° ESE visible
12 Aug - 22:00:40 10° W 22:05:00 29° SSW 22:10:12 10° SSE night (unlit)
13 Aug - 05:24:51 10° SSW 05:29:35 16° SSE 05:34:24 10° ESE visible
13 Aug - 07:12:23 10° SW 07:20:02 44° SSE 07:26:43 10° E daylight
13 Aug - 09:02:03 10° WSW 09:09:30 58° NNW 09:15:32 10° NE daylight
13 Aug - 10:55:18 10° WNW 10:58:31 14° NNW 11:01:13 10° N daylight
13 Aug - 18:18:37 10° NNE 18:19:03 10° NNE 18:19:40 10° NE daylight
13 Aug - 20:03:22 10° NW 20:07:24 76° NNE 20:12:23 10° ESE visible
13 Aug - 21:52:34 10° WSW 21:56:23 22° SSW 22:00:48 10° SSE night (unlit)
